Weather History for Monett, MO

Change the Weather History Date:

Thursday, January 24, 2013

  Actual Average (KJLN) Record (KJLN)
Temperature  
Mean Temperature 32 °F 35 °F  
Max Temperature 35 °F 45 °F 77 °F (1950)
Min Temperature 28 °F 25 °F -7 °F (1963)
Degree Days  
Heating Degree Days 34 30  
Month to date heating degree days 720  
Since 1 July heating degree days 2337  
Cooling Degree Days 0 0  
Month to date cooling degree days 0  
Year to date cooling degree days 0  
Moisture  
Dew Point 16 °F    
Average Humidity 54    
Maximum Humidity 70    
Minimum Humidity 44    
Precipitation  
Precipitation 0.00 in 0.06 in 0.30 in (1967)
Month to date precipitation 1.58  
Year to date precipitation 1.58  
Sea Level Pressure  
Sea Level Pressure 30.24 in    
Wind  
Wind Speed 12 mph (East)    
Max Wind Speed 17 mph    
Max Gust Speed 22 mph    
Visibility 10 miles    
Events      
T = Trace of Precipitation, MM = Missing Value Source: NWS Daily Summary

Daily Weather History Graph

Daily Weather History Graph

Search for Another Location

Airport:

Trip Planner

Search our weather history database for the weather conditions in past years. The results will help you decide how hot, cold, wet, or windy it might be!

Date:

Astronomy

Jan. 24, 2013 Rise Set
Actual Time 7:23 AM CST 5:33 PM CST
Civil Twilight 6:56 AM CST 6:00 PM CST
Nautical Twilight 6:24 AM CST 6:32 PM CST
Astronomical Twilight 5:53 AM CST 7:02 PM CST
Moon 3:36 PM CST (1/24) 5:21 AM CST (1/24)
Length of Visible Light 11h 04m
Length of Day
10h 09m
Waxing Gibbous, 94% of the Moon is Illuminated
Jan 24
Waxing Gibbous
Jan 26
Full
Feb 3
Last Quarter
Feb 10
New
Feb 17
First Quarter

Hourly Weather History & Observations

Time (CST) Temp. Windchill Dew Point Humidity Pressure Visibility Wind Dir Wind Speed Gust Speed Precip Events Conditions
12:15 AM 35.6 °F 27.5 °F 26.6 °F 70% 30.26 in 10.0 mi NNE 11.5 mph 16.1 mph N/A   Mostly Cloudy
12:35 AM 33.8 °F 25.8 °F 24.8 °F 70% 30.26 in 10.0 mi NNE 10.4 mph - N/A   Overcast
12:55 AM 33.8 °F 25.3 °F 24.8 °F 70% 30.28 in 10.0 mi NNE 11.5 mph - N/A   Overcast
1:15 AM 33.8 °F 27.0 °F 23.0 °F 65% 30.29 in 10.0 mi NNE 8.1 mph - N/A   Overcast
1:55 AM 33.8 °F 26.4 °F 23.0 °F 65% 30.29 in 10.0 mi NE 9.2 mph - N/A   Overcast
2:15 AM 32.0 °F 22.1 °F 23.0 °F 69% 30.29 in 10.0 mi NE 13.8 mph 18.4 mph N/A   Overcast
2:35 AM 32.0 °F 23.6 °F 21.2 °F 64% 30.30 in 10.0 mi NE 10.4 mph - N/A   Overcast
2:55 AM 32.0 °F 22.5 °F 19.4 °F 60% 30.30 in 10.0 mi NE 12.7 mph 19.6 mph N/A   Overcast
3:15 AM 32.0 °F 23.6 °F 19.4 °F 60% 30.31 in 10.0 mi NNE 10.4 mph 16.1 mph N/A   Overcast
3:35 AM 32.0 °F 24.2 °F 19.4 °F 60% 30.31 in 10.0 mi NE 9.2 mph - N/A   Overcast
3:55 AM 32.0 °F 23.6 °F 17.6 °F 55% 30.31 in 10.0 mi NE 10.4 mph 19.6 mph N/A   Overcast
4:15 AM 32.0 °F 23.6 °F 19.4 °F 60% 30.31 in 10.0 mi NE 10.4 mph - N/A   Overcast
4:35 AM 32.0 °F 23.6 °F 17.6 °F 55% 30.31 in 10.0 mi NE 10.4 mph - N/A   Overcast
4:55 AM 30.2 °F 21.9 °F 17.6 °F 60% 30.32 in 10.0 mi NE 9.2 mph - N/A   Overcast
5:15 AM 30.2 °F 19.8 °F 17.6 °F 60% 30.32 in 10.0 mi ENE 13.8 mph - N/A   Overcast
5:35 AM 30.2 °F 21.3 °F 15.8 °F 55% 30.31 in 10.0 mi ENE 10.4 mph 19.6 mph N/A   Overcast
5:55 AM 30.2 °F 20.2 °F 15.8 °F 55% 30.31 in 10.0 mi ENE 12.7 mph 17.3 mph N/A   Overcast
6:15 AM 30.2 °F 21.3 °F 14.0 °F 51% 30.31 in 10.0 mi ENE 10.4 mph 18.4 mph N/A   Overcast
6:35 AM 30.2 °F 20.2 °F 14.0 °F 51% 30.32 in 10.0 mi NE 12.7 mph 16.1 mph N/A   Overcast
6:55 AM 30.2 °F 18.5 °F 14.0 °F 51% 30.32 in 10.0 mi ENE 17.3 mph - N/A   Overcast
7:15 AM 28.4 °F 17.0 °F 14.0 °F 55% 30.32 in 10.0 mi ENE 15.0 mph - N/A   Overcast
7:55 AM 28.4 °F 18.0 °F 14.0 °F 55% 30.32 in 10.0 mi ENE 12.7 mph - N/A   Overcast
8:15 AM 30.2 °F 20.2 °F 12.2 °F 47% 30.32 in 10.0 mi ENE 12.7 mph 17.3 mph N/A   Overcast
8:35 AM 30.2 °F 19.8 °F 12.2 °F 47% 30.33 in 10.0 mi ENE 13.8 mph 18.4 mph N/A   Overcast
9:15 AM 30.2 °F 19.3 °F 12.2 °F 47% 30.34 in 10.0 mi ENE 15.0 mph 21.9 mph N/A   Overcast
9:35 AM 30.2 °F 20.8 °F 12.2 °F 47% 30.34 in 10.0 mi East 11.5 mph 19.6 mph N/A   Overcast
9:55 AM 30.2 °F 20.2 °F 12.2 °F 47% 30.33 in 10.0 mi East 12.7 mph 18.4 mph N/A   Overcast
10:15 AM 32.0 °F 22.5 °F 14.0 °F 48% 30.33 in 10.0 mi East 12.7 mph - N/A   Overcast
10:35 AM 32.0 °F 22.5 °F 14.0 °F 48% 30.32 in 10.0 mi East 12.7 mph - N/A   Overcast
10:55 AM 32.0 °F 23.0 °F 12.2 °F 44% 30.32 in 10.0 mi East 11.5 mph 18.4 mph N/A   Overcast
11:15 AM 32.0 °F 21.6 °F 12.2 °F 44% 30.32 in 10.0 mi East 15.0 mph 19.6 mph N/A   Overcast
11:35 AM 32.0 °F 22.5 °F 14.0 °F 48% 30.31 in 10.0 mi East 12.7 mph 17.3 mph N/A   Overcast
11:55 AM 32.0 °F 23.6 °F 12.2 °F 44% 30.30 in 10.0 mi East 10.4 mph 17.3 mph N/A   Overcast
12:15 PM 32.0 °F 23.6 °F 12.2 °F 44% 30.29 in 10.0 mi East 10.4 mph - N/A   Overcast
12:35 PM 32.0 °F 21.6 °F 12.2 °F 44% 30.28 in 10.0 mi East 15.0 mph - N/A   Overcast
12:55 PM 32.0 °F 22.5 °F 12.2 °F 44% 30.28 in 10.0 mi East 12.7 mph 17.3 mph N/A   Overcast
1:15 PM 32.0 °F 24.2 °F 12.2 °F 44% 30.27 in 10.0 mi East 9.2 mph 16.1 mph N/A   Overcast
1:35 PM 32.0 °F 24.2 °F 12.2 °F 44% 30.26 in 10.0 mi East 9.2 mph 16.1 mph N/A   Overcast
1:55 PM 32.0 °F 23.6 °F 12.2 °F 44% 30.24 in 10.0 mi East 10.4 mph 18.4 mph N/A   Overcast
2:15 PM 32.0 °F 22.1 °F 12.2 °F 44% 30.21 in 10.0 mi ESE 13.8 mph - N/A   Overcast
2:35 PM 32.0 °F 20.8 °F 14.0 °F 48% 30.21 in 10.0 mi East 17.3 mph - N/A   Overcast
2:55 PM 32.0 °F 22.5 °F 14.0 °F 48% 30.19 in 10.0 mi ESE 12.7 mph - N/A   Overcast
3:15 PM 32.0 °F 21.6 °F 14.0 °F 48% 30.19 in 10.0 mi ESE 15.0 mph - N/A   Overcast
3:35 PM 32.0 °F 21.2 °F 15.8 °F 51% 30.19 in 10.0 mi ESE 16.1 mph 20.7 mph N/A   Overcast
3:55 PM 32.0 °F 21.6 °F 14.0 °F 48% 30.19 in 10.0 mi ESE 15.0 mph 19.6 mph N/A   Overcast
4:15 PM 32.0 °F 23.6 °F 15.8 °F 51% 30.19 in 10.0 mi ESE 10.4 mph - N/A   Overcast
4:35 PM 32.0 °F 22.5 °F 15.8 °F 51% 30.18 in 10.0 mi ESE 12.7 mph 18.4 mph N/A   Overcast
4:55 PM 32.0 °F 22.5 °F 17.6 °F 55% 30.17 in 10.0 mi ESE 12.7 mph 18.4 mph N/A   Overcast
5:15 PM 32.0 °F 22.1 °F 17.6 °F 55% 30.15 in 10.0 mi ESE 13.8 mph - N/A   Overcast
5:35 PM 32.0 °F 23.0 °F 17.6 °F 55% 30.15 in 10.0 mi ESE 11.5 mph - N/A   Overcast
5:55 PM 32.0 °F 23.6 °F 17.6 °F 55% 30.16 in 10.0 mi East 10.4 mph - N/A   Overcast
6:15 PM 32.0 °F 23.0 °F 17.6 °F 55% 30.16 in 10.0 mi ESE 11.5 mph - N/A   Overcast
6:35 PM 32.0 °F 23.6 °F 17.6 °F 55% 30.16 in 10.0 mi East 10.4 mph - N/A   Overcast
6:55 PM 32.0 °F 22.1 °F 17.6 °F 55% 30.14 in 10.0 mi ESE 13.8 mph - N/A   Overcast
7:15 PM 32.0 °F 21.2 °F 19.4 °F 60% 30.12 in 10.0 mi ESE 16.1 mph 19.6 mph N/A   Overcast
7:35 PM 32.0 °F 22.1 °F 19.4 °F 60% 30.13 in 10.0 mi ESE 13.8 mph 20.7 mph N/A   Overcast
7:55 PM 32.0 °F 21.6 °F 19.4 °F 60% 30.13 in 10.0 mi ESE 15.0 mph 20.7 mph N/A   Overcast
8:15 PM 32.0 °F 22.5 °F 17.6 °F 55% 30.14 in 10.0 mi ESE 12.7 mph - N/A   Overcast
8:35 PM 32.0 °F 24.2 °F 17.6 °F 55% 30.15 in 10.0 mi ESE 9.2 mph - N/A   Overcast
8:55 PM 32.0 °F 22.5 °F 15.8 °F 51% 30.14 in 10.0 mi ESE 12.7 mph - N/A   Overcast
9:15 PM 32.0 °F 23.0 °F 15.8 °F 51% 30.13 in 10.0 mi ESE 11.5 mph - N/A   Overcast
9:35 PM 32.0 °F 22.1 °F 15.8 °F 51% 30.13 in 10.0 mi ESE 13.8 mph 17.3 mph N/A   Overcast
9:55 PM 32.0 °F 21.6 °F 15.8 °F 51% 30.13 in 10.0 mi SE 15.0 mph 19.6 mph N/A   Overcast
10:15 PM 32.0 °F 22.5 °F 15.8 °F 51% 30.12 in 10.0 mi SE 12.7 mph - N/A   Overcast
10:35 PM 32.0 °F 21.6 °F 17.6 °F 55% 30.12 in 10.0 mi SSE 15.0 mph - N/A   Overcast
10:55 PM 32.0 °F 23.6 °F 17.6 °F 55% 30.13 in 10.0 mi SE 10.4 mph 18.4 mph N/A   Overcast
11:15 PM 32.0 °F 24.2 °F 17.6 °F 55% 30.13 in 10.0 mi SE 9.2 mph - N/A   Overcast
11:35 PM 30.2 °F 20.2 °F 21.2 °F 69% 30.13 in 10.0 mi SE 12.7 mph - N/A   Overcast
11:55 PM 30.2 °F 20.8 °F 21.2 °F 69% 30.14 in 10.0 mi SE 11.5 mph 16.1 mph N/A   Overcast